| time (UTC) | temp F | wind direction | speed knots | gust knots | rain 1hr in | rain 24hr in | rain mn in | humidity % | barometer mb |
| 20260508002445 | 54 | 206 | 0.9 | 2.6 | 0.00 | 0.13 | 0.08 | 87 | 1009.5 |
| 20260508001943 | 54 | 0 | 0.9 | 2.6 | 0.00 | 0.13 | 0.08 | 87 | 1009.5 |
| 20260508001439 | 54 | 236 | 0.9 | 1.7 | 0.00 | 0.13 | 0.08 | 89 | 1009.4 |
| 20260508000940 | 54 | 0 | 0.9 | 3.5 | 0.00 | 0.13 | 0.08 | 88 | 1009.3 |
| 20260508000441 | 54 | 199 | 0.9 | 3.5 | 0.00 | 0.13 | 0.08 | 89 | 1009.2 |
| 20260508000159 | 55 | 0 | 0.9 | 3.5 | 0.00 | 0.13 | 0.08 | 88 | 1009.2 |
| 20260507235439 | 56 | 149 | 0.9 | 3.5 | 0.00 | 0.13 | 0.08 | 87 | 1009.0 |
| 20260507234938 | 56 | 126 | 0.9 | 2.6 | 0.00 | 0.13 | 0.08 | 84 | 1008.9 |
| 20260507234438 | 57 | 41 | 0.0 | 2.6 | 0.00 | 0.13 | 0.08 | 84 | 1008.8 |
| 20260507233938 | 57 | 0 | 0.9 | 3.5 | 0.00 | 0.13 | 0.08 | 82 | 1008.7 |
| 20260507233438 | 57 | 0 | 0.9 | 3.5 | 0.00 | 0.13 | 0.08 | 81 | 1008.7 |
| 20260507232938 | 57 | 160 | 1.7 | 3.5 | 0.00 | 0.13 | 0.08 | 81 | 1008.6 |
| 20260507232704 | 57 | 118 | 1.7 | 2.6 | 0.00 | 0.13 | 0.08 | 82 | 1008.6 |
| 20260507231938 | 57 | 94 | 0.9 | 5.2 | 0.00 | 0.13 | 0.08 | 81 | 1008.5 |
| 20260507231438 | 57 | 0 | 1.7 | 5.2 | 0.00 | 0.13 | 0.08 | 83 | 1008.5 |
| 20260507230938 | 57 | 113 | 1.7 | 4.3 | 0.00 | 0.13 | 0.08 | 82 | 1008.4 |
| 20260507230439 | 57 | 103 | 0.9 | 3.5 | 0.00 | 0.13 | 0.08 | 81 | 1008.4 |
| 20260507225939 | 56 | 0 | 1.7 | 4.3 | 0.00 | 0.13 | 0.08 | 82 | 1008.3 |
| 20260507225438 | 56 | 136 | 2.6 | 4.3 | 0.00 | 0.13 | 0.08 | 84 | 1008.3 |
| 20260507224935 | 56 | 129 | 1.7 | 4.3 | 0.00 | 0.13 | 0.08 | 84 | 1008.3 |
| 20260507224433 | 56 | 276 | 0.9 | 4.3 | 0.00 | 0.13 | 0.08 | 83 | 1008.2 |
| 20260507223933 | 56 | 89 | 0.9 | 2.6 | 0.00 | 0.13 | 0.08 | 83 | 1008.2 |
| 20260507223433 | 56 | 50 | 1.7 | 5.2 | 0.00 | 0.13 | 0.08 | 83 | 1008.1 |
| 20260507222933 | 56 | 357 | 1.7 | 5.2 | 0.00 | 0.13 | 0.08 | 83 | 1008.1 |
| 20260507222432 | 56 | 74 | 1.7 | 6.1 | 0.00 | 0.13 | 0.08 | 83 | 1007.9 |
| 20260507221934 | 56 | 89 | 2.6 | 6.1 | 0.00 | 0.13 | 0.08 | 83 | 1008.0 |
| 20260507221434 | 57 | 133 | 2.6 | 6.1 | 0.00 | 0.13 | 0.08 | 82 | 1008.0 |
| 20260507220933 | 56 | 106 | 2.6 | 6.1 | 0.00 | 0.13 | 0.08 | 84 | 1007.8 |
| 20260507220433 | 56 | 17 | 2.6 | 5.2 | 0.00 | 0.13 | 0.08 | 84 | 1007.9 |
| 20260507215933 | 57 | 68 | 3.5 | 7.8 | 0.00 | 0.13 | 0.08 | 84 | 1007.9 |
| 20260507215434 | 58 | 94 | 4.3 | 8.7 | 0.00 | 0.13 | 0.08 | 82 | 1007.8 |
| 20260507214929 | 60 | 11 | 3.5 | 8.7 | 0.00 | 0.13 | 0.08 | 79 | 1007.7 |
| 20260507214430 | 60 | 74 | 2.6 | 5.2 | 0.00 | 0.13 | 0.08 | 77 | 1007.6 |
| 20260507213930 | 61 | 77 | 2.6 | 6.1 | 0.00 | 0.13 | 0.08 | 76 | 1007.7 |
| 20260507213430 | 60 | 169 | 1.7 | 6.1 | 0.00 | 0.13 | 0.08 | 75 | 1007.6 |
| 20260507213152 | 60 | 140 | 1.7 | 5.2 | 0.00 | 0.13 | 0.08 | 77 | 1007.6 |
| 20260507212655 | 60 | 210 | 2.6 | 5.2 | 0.00 | 0.13 | 0.08 | 78 | 1007.6 |
| 20260507212153 | 61 | 170 | 2.6 | 5.2 | 0.00 | 0.13 | 0.08 | 78 | 1007.7 |
| 20260507211430 | 63 | 9 | 2.6 | 6.1 | 0.00 | 0.13 | 0.08 | 75 | 1007.7 |
| 20260507210930 | 62 | 291 | 2.6 | 6.1 | 0.00 | 0.13 | 0.08 | 71 | 1007.5 |
| 20260507210430 | 62 | 158 | 2.6 | 6.1 | 0.00 | 0.13 | 0.08 | 70 | 1007.5 |
| 20260507205930 | 62 | 176 | 1.7 | 6.1 | 0.00 | 0.13 | 0.08 | 69 | 1007.5 |
| 20260507205430 | 62 | 0 | 2.6 | 10.4 | 0.00 | 0.13 | 0.08 | 75 | 1007.4 |
| 20260507204930 | 61 | 131 | 1.7 | 10.4 | 0.00 | 0.13 | 0.08 | 71 | 1007.3 |
| 20260507204430 | 60 | 0 | 0.9 | 3.5 | 0.00 | 0.13 | 0.08 | 70 | 1007.4 |
| 20260507203930 | 59 | 211 | 0.9 | 3.5 | 0.00 | 0.13 | 0.08 | 72 | 1007.7 |
| 20260507203430 | 59 | 54 | 1.7 | 5.2 | 0.00 | 0.13 | 0.08 | 70 | 1007.7 |
| 20260507202930 | 59 | 221 | 2.6 | 7.0 | 0.00 | 0.13 | 0.08 | 74 | 1007.7 |
| 20260507202430 | 59 | 293 | 2.6 | 7.0 | 0.00 | 0.13 | 0.08 | 72 | 1007.9 |
| 20260507201929 | 60 | 330 | 2.6 | 6.1 | 0.00 | 0.13 | 0.08 | 72 | 1007.9 |
| 20260507201434 | 60 | 274 | 3.5 | 7.8 | 0.00 | 0.13 | 0.08 | 72 | 1007.8 |
| 20260507200934 | 60 | 300 | 3.5 | 7.8 | 0.00 | 0.13 | 0.08 | 72 | 1007.9 |
| 20260507200434 | 59 | 174 | 2.6 | 7.0 | 0.00 | 0.13 | 0.08 | 75 | 1007.7 |
| 20260507200157 | 58 | 174 | 1.7 | 5.2 | 0.00 | 0.13 | 0.08 | 77 | 1007.9 |
| 20260507195434 | 58 | 197 | 1.7 | 6.1 | 0.00 | 0.13 | 0.08 | 78 | 1008.2 |
| 20260507195200 | 59 | 108 | 2.6 | 6.1 | 0.00 | 0.13 | 0.08 | 79 | 1008.4 |
| 20260507194434 | 59 | 335 | 1.7 | 6.1 | 0.00 | 0.13 | 0.08 | 78 | 1008.3 |
| 20260507194154 | 59 | 166 | 1.7 | 6.1 | 0.00 | 0.13 | 0.08 | 80 | 1008.1 |
| 20260507193429 | 58 | 0 | 1.7 | 6.1 | 0.00 | 0.13 | 0.08 | 82 | 1008.4 |
| 20260507192928 | 58 | 264 | 1.7 | 6.1 | 0.00 | 0.13 | 0.08 | 81 | 1008.5 |
| 20260507192425 | 58 | 147 | 0.9 | 5.2 | 0.02 | 0.13 | 0.08 | 80 | 1008.4 |
| 20260507191925 | 57 | 331 | 0.9 | 3.5 | 0.02 | 0.13 | 0.08 | 81 | 1008.5 |
| 20260507191643 | 57 | 11 | 0.9 | 3.5 | 0.02 | 0.13 | 0.08 | 83 | 1008.5 |
| 20260507190919 | 56 | 0 | 1.7 | 5.2 | 0.02 | 0.13 | 0.08 | 82 | 1008.8 |
| 20260507190418 | 56 | 213 | 1.7 | 5.2 | 0.02 | 0.13 | 0.08 | 85 | 1008.8 |
| 20260507185918 | 56 | 141 | 1.7 | 5.2 | 0.02 | 0.13 | 0.08 | 83 | 1008.7 |
| 20260507185418 | 55 | 157 | 1.7 | 5.2 | 0.02 | 0.13 | 0.08 | 87 | 1008.7 |
| 20260507184918 | 55 | 9 | 1.7 | 3.5 | 0.02 | 0.13 | 0.08 | 83 | 1008.8 |
| 20260507184650 | 54 | 14 | 1.7 | 4.3 | 0.02 | 0.13 | 0.08 | 86 | 1008.7 |
| 20260507184143 | 54 | 1 | 1.7 | 4.3 | 0.02 | 0.13 | 0.08 | 85 | 1008.8 |
| 20260507183643 | 54 | 89 | 0.9 | 3.5 | 0.02 | 0.12 | 0.08 | 85 | 1008.9 |
| 20260507182918 | 54 | 0 | 0.9 | 2.6 | 0.02 | 0.12 | 0.08 | 87 | 1009.0 |
| 20260507182639 | 54 | 326 | 0.9 | 3.5 | 0.00 | 0.11 | 0.07 | 87 | 1009.2 |
| 20260507181919 | 53 | 4 | 0.9 | 3.5 | 0.00 | 0.11 | 0.07 | 88 | 1009.2 |
| 20260507181418 | 53 | 314 | 1.7 | 4.3 | 0.00 | 0.11 | 0.07 | 88 | 1009.3 |
| 20260507180915 | 53 | 313 | 1.7 | 4.3 | 0.00 | 0.11 | 0.07 | 90 | 1009.3 |
| 20260507180413 | 53 | 36 | 1.7 | 5.2 | 0.00 | 0.11 | 0.07 | 88 | 1009.3 |
| 20260507175913 | 53 | 11 | 1.7 | 5.2 | 0.00 | 0.11 | 0.06 | 89 | 1009.4 |
| 20260507175413 | 53 | 307 | 1.7 | 3.5 | 0.00 | 0.11 | 0.06 | 86 | 1009.2 |
| 20260507174913 | 53 | 130 | 1.7 | 3.5 | 0.00 | 0.11 | 0.06 | 85 | 1009.2 |
| 20260507174413 | 53 | 45 | 1.7 | 4.3 | 0.00 | 0.11 | 0.06 | 86 | 1009.3 |
| 20260507173913 | 53 | 319 | 1.7 | 4.3 | 0.00 | 0.11 | 0.06 | 85 | 1009.5 |
| 20260507173413 | 53 | 1 | 1.7 | 4.3 | 0.00 | 0.11 | 0.06 | 87 | 1009.5 |
| 20260507172913 | 53 | 8 | 0.9 | 3.5 | 0.00 | 0.11 | 0.06 | 87 | 1009.4 |
| 20260507172414 | 53 | 98 | 0.9 | 3.5 | 0.00 | 0.11 | 0.06 | 87 | 1009.6 |
| 20260507171914 | 53 | 279 | 0.9 | 3.5 | 0.00 | 0.11 | 0.06 | 85 | 1009.8 |
| 20260507171409 | 53 | 87 | 0.9 | 3.5 | 0.00 | 0.11 | 0.06 | 89 | 1009.7 |
| 20260507170908 | 53 | 138 | 0.9 | 3.5 | 0.00 | 0.11 | 0.06 | 87 | 1009.8 |
| 20260507170408 | 53 | 159 | 0.9 | 3.5 | 0.00 | 0.11 | 0.06 | 87 | 1009.7 |
| 20260507165908 | 53 | 304 | 0.9 | 2.6 | 0.00 | 0.10 | 0.06 | 86 | 1010.1 |
| 20260507165408 | 52 | 0 | 0.9 | 2.6 | 0.00 | 0.10 | 0.06 | 85 | 1010.3 |
| 20260507164904 | 52 | 351 | 0.9 | 4.3 | 0.00 | 0.10 | 0.06 | 87 | 1010.2 |
| 20260507164404 | 52 | 311 | 0.9 | 4.3 | 0.00 | 0.10 | 0.06 | 88 | 1010.2 |
| 20260507163902 | 52 | 5 | 0.9 | 3.5 | 0.00 | 0.10 | 0.06 | 89 | 1010.1 |
| 20260507163402 | 52 | 355 | 0.9 | 3.5 | 0.00 | 0.10 | 0.06 | 90 | 1010.3 |
| 20260507162902 | 52 | 32 | 0.9 | 3.5 | 0.00 | 0.10 | 0.06 | 89 | 1010.4 |
| 20260507162402 | 52 | 107 | 0.9 | 1.7 | 0.00 | 0.10 | 0.06 | 90 | 1010.6 |
| 20260507161903 | 52 | 6 | 0.9 | 2.6 | 0.00 | 0.10 | 0.06 | 89 | 1010.7 |
| 20260507161402 | 52 | 332 | 0.9 | 2.6 | 0.00 | 0.10 | 0.06 | 88 | 1010.9 |
| 20260507160902 | 52 | 170 | 0.9 | 2.6 | 0.00 | 0.10 | 0.06 | 88 | 1010.6 |
| 20260507160403 | 52 | 0 | 1.7 | 4.3 | 0.00 | 0.10 | 0.06 | 89 | 1010.6 |
| 20260507155903 | 52 | 315 | 1.7 | 4.3 | 0.00 | 0.10 | 0.06 | 90 | 1010.7 |
| 20260507155403 | 52 | 317 | 0.9 | 2.6 | 0.01 | 0.10 | 0.06 | 89 | 1010.6 |
| 20260507154858 | 52 | 332 | 1.7 | 3.5 | 0.01 | 0.10 | 0.06 | 91 | 1010.7 |
| 20260507154359 | 51 | 54 | 0.9 | 3.5 | 0.01 | 0.10 | 0.06 | 92 | 1010.6 |
| 20260507153903 | 51 | 121 | 0.9 | 3.5 | 0.01 | 0.10 | 0.06 | 92 | 1010.8 |
| 20260507153401 | 51 | 0 | 0.9 | 2.6 | 0.01 | 0.10 | 0.06 | 92 | 1010.9 |
| 20260507152858 | 51 | 0 | 0.9 | 2.6 | 0.02 | 0.10 | 0.06 | 92 | 1010.9 |
| 20260507152357 | 51 | 0 | 0.9 | 3.5 | 0.02 | 0.10 | 0.06 | 92 | 1011.0 |
| 20260507151853 | 51 | 139 | 0.9 | 3.5 | 0.02 | 0.10 | 0.06 | 92 | 1011.1 |
| 20260507151353 | 51 | 10 | 0.9 | 2.6 | 0.02 | 0.10 | 0.06 | 91 | 1011.1 |
| 20260507151116 | 51 | 170 | 0.9 | 2.6 | 0.02 | 0.10 | 0.06 | 92 | 1011.2 |
| 20260507150353 | 51 | 132 | 0.9 | 2.6 | 0.02 | 0.10 | 0.06 | 92 | 1010.8 |
| 20260507150117 | 51 | 64 | 1.7 | 4.3 | 0.02 | 0.10 | 0.06 | 91 | 1010.9 |
| 20260507145353 | 51 | 54 | 1.7 | 4.3 | 0.02 | 0.09 | 0.05 | 90 | 1011.3 |
| 20260507144854 | 51 | 137 | 0.9 | 3.5 | 0.01 | 0.09 | 0.05 | 92 | 1011.1 |
| 20260507144613 | 51 | 0 | 0.9 | 3.5 | 0.01 | 0.09 | 0.05 | 91 | 1010.9 |
| 20260507143853 | 51 | 0 | 0.9 | 4.3 | 0.01 | 0.09 | 0.05 | 90 | 1010.9 |
| 20260507143352 | 51 | 60 | 0.9 | 4.3 | 0.01 | 0.09 | 0.05 | 90 | 1010.9 |
| 20260507142848 | 51 | 35 | 1.7 | 5.2 | 0.00 | 0.08 | 0.04 | 89 | 1011.1 |
| 20260507142348 | 51 | 92 | 1.7 | 5.2 | 0.00 | 0.08 | 0.04 | 90 | 1011.1 |
| 20260507141847 | 52 | 57 | 0.9 | 2.6 | 0.00 | 0.08 | 0.04 | 90 | 1011.1 |
| 20260507141347 | 52 | 0 | 0.9 | 2.6 | 0.00 | 0.08 | 0.04 | 89 | 1011.2 |
| 20260507140846 | 52 | 5 | 0.9 | 3.5 | 0.00 | 0.08 | 0.04 | 88 | 1011.3 |
| 20260507140346 | 52 | 353 | 0.9 | 3.5 | 0.00 | 0.08 | 0.04 | 88 | 1011.6 |
| 20260507135847 | 52 | 151 | 0.9 | 3.5 | 0.00 | 0.08 | 0.04 | 87 | 1011.6 |
| 20260507135613 | 52 | 0 | 1.7 | 4.3 | 0.00 | 0.08 | 0.04 | 86 | 1011.5 |
| 20260507135108 | 52 | 34 | 0.9 | 4.3 | 0.00 | 0.09 | 0.04 | 85 | 1011.3 |
| 20260507134347 | 52 | 26 | 1.7 | 3.5 | 0.00 | 0.09 | 0.04 | 85 | 1011.6 |
| 20260507133343 | 52 | 25 | 0.9 | 3.5 | 0.00 | 0.09 | 0.04 | 85 | 1011.3 |
| 20260507132841 | 52 | 328 | 0.9 | 3.5 | 0.00 | 0.09 | 0.04 | 85 | 1011.5 |
| 20260507132341 | 52 | 3 | 0.9 | 3.5 | 0.00 | 0.09 | 0.04 | 84 | 1011.5 |
| 20260507131841 | 52 | 3 | 1.7 | 3.5 | 0.00 | 0.09 | 0.04 | 85 | 1011.6 |
| 20260507131341 | 52 | 16 | 1.7 | 4.3 | 0.00 | 0.09 | 0.04 | 85 | 1011.5 |
| 20260507131101 | 52 | 0 | 2.6 | 6.1 | 0.00 | 0.10 | 0.04 | 85 | 1011.5 |
| 20260507130341 | 52 | 327 | 1.7 | 6.1 | 0.00 | 0.10 | 0.04 | 85 | 1011.3 |
| 20260507125840 | 52 | 0 | 1.7 | 5.2 | 0.00 | 0.10 | 0.04 | 86 | 1011.5 |
| 20260507125337 | 52 | 9 | 1.7 | 5.2 | 0.00 | 0.10 | 0.04 | 86 | 1011.5 |
| 20260507124837 | 52 | 17 | 1.7 | 5.2 | 0.00 | 0.10 | 0.04 | 86 | 1011.5 |
| 20260507124337 | 53 | 11 | 1.7 | 5.2 | 0.00 | 0.11 | 0.04 | 86 | 1011.3 |
| 20260507123837 | 52 | 351 | 1.7 | 4.3 | 0.00 | 0.11 | 0.04 | 86 | 1011.3 |
| 20260507123337 | 52 | 340 | 1.7 | 3.5 | 0.00 | 0.11 | 0.04 | 87 | 1011.2 |
| 20260507122837 | 52 | 357 | 1.7 | 2.6 | 0.00 | 0.11 | 0.04 | 88 | 1011.1 |
| 20260507122338 | 52 | 353 | 1.7 | 3.5 | 0.00 | 0.11 | 0.04 | 88 | 1011.1 |
| 20260507121836 | 52 | 335 | 1.7 | 3.5 | 0.00 | 0.13 | 0.04 | 88 | 1011.2 |
| 20260507120832 | 52 | 332 | 1.7 | 5.2 | 0.00 | 0.13 | 0.04 | 89 | 1011.3 |
| 20260507115832 | 52 | 341 | 1.7 | 3.5 | 0.00 | 0.13 | 0.04 | 90 | 1011.2 |
| 20260507115332 | 52 | 355 | 1.7 | 5.2 | 0.00 | 0.14 | 0.04 | 90 | 1011.2 |
| 20260507114832 | 52 | 326 | 1.7 | 5.2 | 0.00 | 0.15 | 0.04 | 90 | 1011.0 |
| 20260507114332 | 52 | 18 | 1.7 | 3.5 | 0.00 | 0.15 | 0.04 | 90 | 1011.2 |
| 20260507113832 | 52 | 12 | 0.9 | 3.5 | 0.00 | 0.15 | 0.04 | 91 | 1011.3 |
| 20260507113332 | 52 | 322 | 0.9 | 3.5 | 0.00 | 0.15 | 0.04 | 92 | 1011.2 |
| 20260507112831 | 52 | 0 | 1.7 | 4.3 | 0.00 | 0.15 | 0.04 | 92 | 1011.1 |
| 20260507112332 | 52 | 341 | 1.7 | 5.2 | 0.00 | 0.15 | 0.04 | 93 | 1010.9 |
| 20260507111835 | 52 | 3 | 1.7 | 5.2 | 0.00 | 0.15 | 0.04 | 93 | 1010.9 |
| 20260507111332 | 52 | 350 | 1.7 | 5.2 | 0.00 | 0.16 | 0.04 | 94 | 1010.9 |
| 20260507110832 | 52 | 8 | 1.7 | 4.3 | 0.00 | 0.17 | 0.04 | 94 | 1010.9 |
| 20260507110332 | 52 | 107 | 1.7 | 4.3 | 0.00 | 0.17 | 0.04 | 94 | 1010.9 |
| 20260507105832 | 52 | 342 | 1.7 | 5.2 | 0.00 | 0.17 | 0.04 | 94 | 1010.8 |
| 20260507105334 | 52 | 330 | 1.7 | 5.2 | 0.00 | 0.17 | 0.04 | 94 | 1010.5 |
| 20260507104831 | 52 | 5 | 1.7 | 5.2 | 0.00 | 0.17 | 0.04 | 95 | 1010.6 |
| 20260507104333 | 52 | 329 | 1.7 | 5.2 | 0.00 | 0.17 | 0.04 | 94 | 1010.5 |
| 20260507103831 | 52 | 349 | 1.7 | 5.2 | 0.00 | 0.17 | 0.04 | 94 | 1010.4 |
| 20260507103557 | 53 | 6 | 2.6 | 7.8 | 0.00 | 0.18 | 0.04 | 95 | 1010.4 |
| 20260507103052 | 53 | 73 | 3.5 | 7.8 | 0.00 | 0.18 | 0.04 | 95 | 1010.3 |
| 20260507102556 | 53 | 60 | 3.5 | 7.8 | 0.00 | 0.18 | 0.04 | 95 | 1010.4 |
| 20260507101831 | 53 | 346 | 2.6 | 5.2 | 0.00 | 0.18 | 0.04 | 95 | 1010.4 |
| 20260507101605 | 53 | 17 | 2.6 | 5.2 | 0.00 | 0.18 | 0.04 | 95 | 1010.2 |
| 20260507100831 | 53 | 0 | 1.7 | 5.2 | 0.00 | 0.18 | 0.04 | 95 | 1010.3 |
| 20260507100554 | 53 | 46 | 0.9 | 5.2 | 0.00 | 0.18 | 0.04 | 95 | 1010.4 |
| 20260507095832 | 53 | 0 | 0.9 | 4.3 | 0.00 | 0.18 | 0.04 | 95 | 1010.3 |
| 20260507095327 | 53 | 345 | 2.6 | 5.2 | 0.00 | 0.18 | 0.04 | 95 | 1010.3 |
| 20260507094828 | 53 | 16 | 1.7 | 5.2 | 0.00 | 0.18 | 0.04 | 94 | 1010.3 |
| 20260507094328 | 53 | 351 | 1.7 | 4.3 | 0.00 | 0.18 | 0.04 | 95 | 1010.4 |
| 20260507094050 | 53 | 2 | 1.7 | 4.3 | 0.00 | 0.18 | 0.04 | 95 | 1010.3 |
| 20260507093327 | 53 | 14 | 1.7 | 4.3 | 0.00 | 0.18 | 0.04 | 96 | 1010.3 |
| 20260507092826 | 53 | 0 | 1.7 | 4.3 | 0.00 | 0.18 | 0.04 | 96 | 1010.4 |
| 20260507092323 | 53 | 347 | 1.7 | 5.2 | 0.00 | 0.18 | 0.04 | 96 | 1010.1 |
| 20260507091821 | 54 | 340 | 1.7 | 5.2 | 0.00 | 0.18 | 0.04 | 96 | 1010.0 |
| 20260507091322 | 54 | 78 | 1.7 | 5.2 | 0.00 | 0.18 | 0.04 | 96 | 1010.2 |
| 20260507090323 | 54 | 0 | 1.7 | 7.0 | 0.00 | 0.18 | 0.04 | 96 | 1010.3 |
| 20260507085821 | 54 | 0 | 1.7 | 7.0 | 0.00 | 0.18 | 0.04 | 96 | 1010.3 |
| 20260507085321 | 54 | 350 | 2.6 | 7.0 | 0.00 | 0.18 | 0.04 | 96 | 1010.3 |
| 20260507084822 | 54 | 103 | 3.5 | 7.0 | 0.00 | 0.18 | 0.04 | 96 | 1010.2 |
| 20260507084323 | 54 | 19 | 3.5 | 7.0 | 0.00 | 0.18 | 0.04 | 96 | 1010.1 |
| 20260507083823 | 54 | 10 | 2.6 | 7.8 | 0.00 | 0.18 | 0.04 | 97 | 1009.9 |
| 20260507082821 | 55 | 64 | 2.6 | 7.0 | 0.00 | 0.18 | 0.04 | 97 | 1009.7 |
| 20260507082321 | 55 | 55 | 2.6 | 7.0 | 0.00 | 0.18 | 0.04 | 97 | 1009.8 |
| 20260507081821 | 55 | 28 | 2.6 | 7.0 | 0.00 | 0.18 | 0.04 | 97 | 1009.8 |
| 20260507081322 | 55 | 48 | 3.5 | 7.8 | 0.00 | 0.18 | 0.04 | 96 | 1009.8 |
| 20260507080821 | 56 | 359 | 2.6 | 7.8 | 0.00 | 0.18 | 0.04 | 96 | 1009.9 |
| 20260507080317 | 56 | 313 | 3.5 | 8.7 | 0.00 | 0.18 | 0.04 | 96 | 1010.0 |
| 20260507075817 | 57 | 331 | 3.5 | 8.7 | 0.00 | 0.18 | 0.04 | 95 | 1009.9 |
| 20260507075317 | 59 | 13 | 3.5 | 7.0 | 0.00 | 0.18 | 0.04 | 94 | 1009.7 |
| 20260507074817 | 60 | 37 | 2.6 | 7.0 | 0.00 | 0.18 | 0.04 | 91 | 1009.7 |
| 20260507074317 | 61 | 110 | 1.7 | 4.3 | 0.00 | 0.18 | 0.04 | 83 | 1009.6 |
| 20260507073817 | 61 | 342 | 2.6 | 6.1 | 0.00 | 0.18 | 0.04 | 83 | 1009.3 |
| 20260507073318 | 61 | 291 | 3.5 | 6.1 | 0.00 | 0.18 | 0.04 | 83 | 1009.5 |
| 20260507073036 | 61 | 284 | 3.5 | 6.1 | 0.00 | 0.18 | 0.04 | 84 | 1009.4 |
| 20260507072317 | 61 | 282 | 3.5 | 5.2 | 0.00 | 0.18 | 0.04 | 84 | 1009.5 |
| 20260507071815 | 61 | 299 | 2.6 | 6.1 | 0.00 | 0.18 | 0.04 | 84 | 1009.5 |
| 20260507071313 | 61 | 300 | 2.6 | 6.1 | 0.00 | 0.18 | 0.04 | 84 | 1009.5 |
| 20260507070813 | 61 | 291 | 2.6 | 5.2 | 0.00 | 0.18 | 0.04 | 84 | 1009.3 |
| 20260507070313 | 61 | 337 | 2.6 | 5.2 | 0.00 | 0.18 | 0.04 | 83 | 1009.0 |
| 20260507065813 | 61 | 279 | 3.5 | 7.0 | 0.00 | 0.18 | 0.04 | 83 | 1009.4 |
| 20260507065313 | 61 | 298 | 3.5 | 7.0 | 0.00 | 0.18 | 0.04 | 82 | 1009.3 |
| 20260507064811 | 61 | 290 | 2.6 | 7.0 | 0.00 | 0.18 | 0.04 | 83 | 1009.3 |
| 20260507064310 | 61 | 312 | 2.6 | 5.2 | 0.00 | 0.18 | 0.04 | 84 | 1009.3 |
| 20260507063812 | 61 | 292 | 2.6 | 5.2 | 0.00 | 0.18 | 0.04 | 84 | 1009.2 |
| 20260507063312 | 61 | 304 | 2.6 | 7.0 | 0.00 | 0.18 | 0.04 | 85 | 1009.2 |
| 20260507062811 | 62 | 302 | 3.5 | 9.6 | 0.00 | 0.18 | 0.04 | 85 | 1008.9 |
| 20260507062311 | 62 | 260 | 3.5 | 9.6 | 0.00 | 0.18 | 0.04 | 84 | 1009.3 |
| 20260507061811 | 62 | 305 | 3.5 | 7.8 | 0.00 | 0.18 | 0.04 | 86 | 1009.4 |
| 20260507061311 | 62 | 294 | 3.5 | 8.7 | 0.00 | 0.18 | 0.04 | 86 | 1009.6 |
| 20260507061036 | 62 | 296 | 3.5 | 8.7 | 0.00 | 0.18 | 0.04 | 87 | 1009.6 |
| 20260507060544 | 62 | 284 | 2.6 | 7.8 | 0.00 | 0.18 | 0.04 | 88 | 1009.7 |
| 20260507055812 | 62 | 283 | 2.6 | 7.8 | 0.00 | 0.18 | 0.04 | 90 | 1009.7 |
| 20260507055312 | 62 | 310 | 2.6 | 7.8 | 0.00 | 0.18 | 0.04 | 94 | 1009.7 |
| 20260507055037 | 62 | 266 | 2.6 | 5.2 | 0.00 | 0.18 | 0.04 | 94 | 1009.7 |
| 20260507054545 | 62 | 0 | 2.6 | 5.2 | 0.00 | 0.18 | 0.04 | 95 | 1009.8 |
| 20260507053808 | 62 | 334 | 1.7 | 5.2 | 0.00 | 0.18 | 0.04 | 97 | 1009.7 |
| 20260507053308 | 62 | 289 | 1.7 | 6.1 | 0.00 | 0.18 | 0.04 | 98 | 1009.8 |
| 20260507052531 | 62 | 164 | 0.9 | 2.6 | 0.01 | 0.18 | 0.04 | 99 | 1009.7 |
| 20260507052024 | 62 | 36 | 0.9 | 3.5 | 0.01 | 0.18 | 0.04 | 99 | 1009.7 |
| 20260507051307 | 62 | 51 | 0.9 | 3.5 | 0.01 | 0.18 | 0.04 | 98 | 1009.5 |
| 20260507050806 | 62 | 0 | 0.9 | 3.5 | 0.01 | 0.18 | 0.04 | 98 | 1009.2 |
| 20260507050306 | 62 | 286 | 1.7 | 3.5 | 0.03 | 0.18 | 0.04 | 98 | 1009.0 |
| 20260507050030 | 62 | 302 | 1.7 | 3.5 | 0.04 | 0.18 | 0.04 | 98 | 1008.7 |
| 20260507045307 | 62 | 306 | 0.9 | 2.6 | 0.04 | 0.18 | 0.04 | 98 | 1008.4 |
| 20260507044804 | 62 | 236 | 0.0 | 2.6 | 0.04 | 0.18 | 0.04 | 98 | 1008.2 |
| 20260507044302 | 62 | 0 | 0.0 | 2.6 | 0.04 | 0.18 | 0.04 | 97 | 1008.0 |
| 20260507043802 | 63 | 0 | 0.9 | 3.5 | 0.04 | 0.18 | 0.04 | 97 | 1008.2 |
| 20260507043301 | 63 | 297 | 1.7 | 4.3 | 0.04 | 0.17 | 0.03 | 97 | 1008.5 |
| 20260507042300 | 63 | 280 | 2.6 | 6.1 | 0.04 | 0.17 | 0.03 | 97 | 1009.3 |
| 20260507041805 | 63 | 281 | 1.7 | 6.1 | 0.04 | 0.17 | 0.03 | 97 | 1009.2 |
| 20260507041302 | 63 | 314 | 0.9 | 4.3 | 0.04 | 0.17 | 0.03 | 96 | 1009.3 |
| 20260507041021 | 63 | 0 | 0.9 | 3.5 | 0.04 | 0.17 | 0.02 | 96 | 1009.0 |
| 20260507040301 | 64 | 232 | 1.7 | 3.5 | 0.03 | 0.15 | 0.01 | 95 | 1009.3 |
| 20260507035801 | 64 | 18 | 1.7 | 5.2 | 0.03 | 0.14 | 0.14 | 95 | 1009.3 |
| 20260507035302 | 64 | 301 | 2.6 | 7.0 | 0.03 | 0.14 | 0.14 | 94 | 1009.4 |
| 20260507034801 | 64 | 294 | 3.5 | 7.0 | 0.03 | 0.14 | 0.14 | 94 | 1009.3 |
| 20260507034301 | 64 | 285 | 2.6 | 5.2 | 0.02 | 0.14 | 0.14 | 94 | 1009.3 |
| 20260507033802 | 64 | 284 | 2.6 | 5.2 | 0.03 | 0.14 | 0.14 | 93 | 1009.2 |
| 20260507033301 | 64 | 285 | 1.7 | 5.2 | 0.04 | 0.14 | 0.14 | 93 | 1009.4 |
| 20260507032757 | 64 | 305 | 2.6 | 7.0 | 0.04 | 0.13 | 0.13 | 93 | 1009.5 |
| 20260507032257 | 65 | 304 | 3.5 | 7.0 | 0.04 | 0.13 | 0.13 | 92 | 1009.6 |
| 20260507032021 | 65 | 281 | 3.5 | 7.0 | 0.03 | 0.13 | 0.13 | 91 | 1009.9 |
| 20260507031257 | 65 | 299 | 2.6 | 7.0 | 0.03 | 0.13 | 0.13 | 90 | 1009.8 |
| 20260507030756 | 65 | 304 | 2.6 | 7.0 | 0.03 | 0.13 | 0.13 | 89 | 1009.6 |
| 20260507030256 | 65 | 247 | 2.6 | 6.1 | 0.02 | 0.12 | 0.12 | 88 | 1009.6 |
| 20260507025756 | 66 | 347 | 2.6 | 7.8 | 0.02 | 0.11 | 0.11 | 87 | 1009.7 |
| 20260507025256 | 66 | 325 | 1.7 | 7.8 | 0.02 | 0.11 | 0.11 | 87 | 1009.6 |
| 20260507024756 | 66 | 89 | 1.7 | 4.3 | 0.02 | 0.11 | 0.11 | 87 | 1009.0 |
| 20260507024257 | 66 | 329 | 1.7 | 4.3 | 0.02 | 0.11 | 0.11 | 85 | 1009.4 |
| 20260507023756 | 67 | 288 | 1.7 | 5.2 | 0.01 | 0.11 | 0.11 | 83 | 1009.4 |
| 20260507023256 | 67 | 271 | 1.7 | 5.2 | 0.00 | 0.10 | 0.10 | 83 | 1009.3 |
| 20260507022756 | 67 | 295 | 1.7 | 4.3 | 0.00 | 0.10 | 0.10 | 82 | 1009.3 |
| 20260507022256 | 67 | 92 | 1.7 | 4.3 | 0.00 | 0.10 | 0.10 | 82 | 1009.3 |
| 20260507022022 | 67 | 93 | 1.7 | 4.3 | 0.00 | 0.10 | 0.10 | 81 | 1009.2 |
| 20260507021256 | 66 | 0 | 0.9 | 2.6 | 0.00 | 0.10 | 0.10 | 82 | 1009.0 |
| 20260507021022 | 66 | 0 | 0.9 | 2.6 | 0.00 | 0.10 | 0.10 | 82 | 1008.8 |
| 20260507020252 | 66 | 192 | 0.9 | 2.6 | 0.00 | 0.10 | 0.10 | 82 | 1008.8 |
| 20260507015753 | 67 | 262 | 0.9 | 2.6 | 0.00 | 0.10 | 0.10 | 82 | 1008.6 |
| 20260507015252 | 67 | 0 | 0.9 | 2.6 | 0.00 | 0.10 | 0.10 | 82 | 1008.6 |
| 20260507014753 | 67 | 294 | 0.0 | 1.7 | 0.00 | 0.10 | 0.10 | 81 | 1008.4 |
| 20260507014251 | 67 | 1 | 0.0 | 2.6 | 0.00 | 0.10 | 0.10 | 80 | 1008.0 |
| 20260507013752 | 67 | 0 | 0.9 | 2.6 | 0.00 | 0.10 | 0.10 | 80 | 1008.2 |
| 20260507013251 | 68 | 148 | 0.0 | 1.7 | 0.00 | 0.10 | 0.10 | 80 | 1008.4 |
| 20260507012251 | 68 | 301 | 0.9 | 2.6 | 0.00 | 0.10 | 0.10 | 79 | 1008.8 |
| 20260507012015 | 68 | 204 | 0.9 | 3.5 | 0.00 | 0.10 | 0.10 | 79 | 1008.6 |
| 20260507011251 | 68 | 240 | 0.9 | 3.5 | 0.00 | 0.10 | 0.10 | 80 | 1008.7 |
| 20260507010751 | 68 | 0 | 0.0 | 1.7 | 0.00 | 0.10 | 0.10 | 80 | 1008.8 |
| 20260507010251 | 68 | 0 | 0.0 | 2.6 | 0.00 | 0.10 | 0.10 | 79 | 1008.8 |
| 20260507010009 | 68 | 229 | 0.9 | 2.6 | 0.00 | 0.10 | 0.10 | 79 | 1008.9 |
| 20260507005252 | 69 | 65 | 1.7 | 4.3 | 0.00 | 0.10 | 0.10 | 79 | 1009.0 |
| 20260507004752 | 69 | 308 | 1.7 | 4.3 | 0.00 | 0.10 | 0.10 | 78 | 1009.0 |
| 20260507004252 | 69 | 277 | 1.7 | 3.5 | 0.00 | 0.10 | 0.10 | 78 | 1008.9 |
| 20260507003752 | 69 | 262 | 1.7 | 4.3 | 0.00 | 0.10 | 0.10 | 78 | 1008.8 |
| 20260507003252 | 69 | 233 | 1.7 | 4.3 | 0.00 | 0.10 | 0.10 | 78 | 1008.9 |
| 20260507002753 | 69 | 308 | 0.9 | 4.3 | 0.00 | 0.10 | 0.10 | 78 | 1008.9 |